Theta_e
298 290 289 290 296 297 302 304 304 303 309 312 319 328 329 331 335 338 341 346 350 360 361 361 361 360 359 359 359 359 358 357
295 293 296 296 299 300 302 305 304 305 305 322 327 332 333 333 335 338 341 344 354 358 359 361 361 360 359 359 359 359 359 357
292 295 298 301 302 301 301 302 304 305 305 318 327 336 333 332 336 335 340 341 350 356 358 360 361 360 359 359 359 359 359 357
292 297 301 303 304 302 301 303 306 304 308 318 334 333 331 332 332 337 338 341 346 355 356 357 359 359 358 358 358 359 358 358
295 298 300 303 307 306 305 304 305 309 306 316 332 335 330 328 329 333 336 341 344 347 352 357 357 358 358 357 357 357 357 357
299 299 299 308 308 306 305 308 314 311 308 315 324 336 331 328 327 332 335 339 341 344 346 346 350 357 357 357 357 357 357 356
299 302 302 309 305 311 313 310 311 311 312 319 334 334 331 330 333 334 336 336 341 343 343 342 342 350 355 357 357 356 356 355
306 308 307 309 307 308 308 308 309 312 315 317 329 329 329 327 326 329 330 334 339 341 342 340 343 341 343 344 347 347 347 347
303 305 306 305 306 308 305 303 307 309 312 315 318 322 323 326 329 329 332 335 338 341 341 340 339 340 342 338 338 338 337 337
301 304 304 302 306 305 306 306 311 311 312 313 313 313 316 320 325 332 332 334 336 339 339 339 337 340 339 338 337 337 336 335
299 299 299 303 302 303 303 308 310 311 312 312 313 313 315 323 323 329 333 335 336 335 336 337 334 337 336 336 336 336 335 335
296 296 298 298 299 301 303 307 307 308 308 310 312 313 318 322 322 323 332 338 339 337 334 333 332 333 333 334 333 333 335 335
294 296 296 300 295 297 303 305 305 305 307 308 310 313 316 318 323 324 325 338 341 339 336 331 329 330 331 332 332 332 332 333
291 295 296 297 291 299 301 301 301 303 304 306 307 311 313 316 320 324 325 333 341 343 338 334 332 332 333 334 334 334 333 333
289 294 293 294 288 295 299 298 298 299 300 302 303 305 310 316 318 320 323 327 333 339 338 336 334 334 335 337 337 337 337 336
286 291 293 291 290 294 297 297 297 298 298 300 301 303 306 311 317 318 321 324 328 335 338 338 337 338 337 339 339 338 339 339
288 292 289 289 290 292 295 295 295 296 297 298 300 304 306 308 313 316 320 320 324 327 329 334 338 337 337 337 339 340 341 341
288 292 290 289 289 293 293 294 295 295 296 297 298 300 303 305 307 309 314 320 323 326 329 332 334 339 336 339 338 341 341 339
286 291 290 288 286 289 293 294 295 296 296 297 297 298 300 302 303 305 309 313 321 323 325 329 337 334 328 331 329 331 331 333
288 285 279 288 278 286 289 291 293 294 294 295 296 298 298 300 301 301 304 307 317 323 324 327 337 337 333 333 333 330 331 331
Wind_Speed
4 3 7 6 4 2 9 9 7 7 7 6 6 2 12 7 18 21 18 15 18 24 21 22 22 22 21 20 19 19 18 18
4 12 5 5 6 5 11 11 3 4 11 7 3 7 8 16 20 22 17 16 21 26 22 21 22 22 21 20 20 19 18 17
3 12 3 3 4 4 9 6 11 7 8 5 6 5 17 21 18 22 17 14 18 24 22 21 21 22 22 21 19 19 18 17
6 16 3 3 5 3 3 7 12 9 9 4 3 4 11 21 20 17 18 16 15 21 20 19 20 21 22 21 20 18 17 17
5 12 5 3 2 4 4 7 7 13 6 5 3 7 6 3 7 11 11 12 13 13 15 18 18 19 19 20 20 20 18 17
5 13 6 4 2 4 3 6 8 5 8 11 1 12 9 7 6 7 6 9 10 10 10 9 10 17 19 19 20 19 19 17
8 7 2 8 4 2 3 6 6 4 4 9 5 14 9 6 5 4 4 4 7 9 7 6 6 10 14 18 18 18 17 18
5 8 11 16 6 13 8 13 8 12 14 12 9 7 8 8 8 5 9 6 6 8 8 6 7 6 6 7 8 9 9 10
2 1 3 13 11 10 9 16 2 11 14 14 2 6 5 2 6 19 13 8 11 11 8 8 7 4 4 3 3 4 6 6
2 5 5 11 14 15 15 22 7 7 9 7 8 8 4 8 8 7 10 18 15 14 13 12 6 6 6 5 4 5 6 7
6 7 7 10 16 17 28 19 7 8 7 10 10 8 7 7 8 11 9 8 13 15 14 14 11 8 6 8 7 6 6 7
5 5 5 9 11 8 25 9 11 8 9 9 10 9 6 5 5 8 10 11 8 13 14 12 11 10 9 7 7 6 7 7
5 6 8 6 13 18 16 14 13 12 8 7 10 8 10 9 8 9 7 13 16 15 9 11 12 8 7 8 8 8 8 9
6 2 6 10 18 4 7 7 13 10 9 8 9 10 8 10 9 9 5 9 11 13 16 15 14 10 8 8 7 7 8 8
7 3 4 7 3 5 7 6 9 11 9 11 10 5 7 9 9 9 9 9 7 8 14 16 13 10 10 8 8 7 7 7
5 6 4 11 8 6 7 5 8 7 8 12 12 16 6 6 10 11 10 10 9 10 12 14 11 10 7 5 6 4 7 8
5 6 7 11 17 9 7 5 7 7 8 10 11 11 10 9 4 9 9 8 11 9 11 8 8 8 6 9 8 6 9 11
4 4 5 10 23 15 5 6 5 7 8 9 11 10 15 12 8 5 9 11 11 13 15 9 8 9 5 9 6 6 7 7
3 6 5 6 16 8 2 3 6 6 6 8 9 16 15 15 12 9 8 9 14 14 14 12 14 4 2 4 3 3 4 4
6 6 5 5 18 8 6 8 5 9 8 10 11 11 9 14 14 11 11 10 10 15 16 15 15 11 10 12 11 6 4 3
Wind_Direction
115 167 203 225 236 44 288 275 283 297 249 248 227 128 167 142 149 142 160 170 162 161 168 168 167 160 158 156 157 153 155 157
103 245 253 211 296 326 326 327 282 267 307 299 264 170 179 136 147 144 162 165 168 160 170 175 171 163 160 160 159 160 161 162
281 263 250 256 260 296 300 274 294 311 275 271 3 25 135 142 153 152 164 164 170 160 170 178 175 167 164 165 166 164 166 168
240 254 305 298 268 261 261 297 298 330 322 295 19 72 170 153 160 160 161 160 168 162 169 182 182 172 167 168 167 169 171 173
247 266 295 248 194 265 274 308 324 305 285 294 69 80 64 61 120 142 155 156 156 161 172 187 186 177 172 169 169 173 175 179
237 257 276 244 346 306 332 290 328 13 359 334 3 103 93 58 63 99 139 154 152 158 171 184 186 187 176 173 174 179 177 183
232 248 279 299 313 164 298 303 320 309 300 306 116 109 100 93 54 80 144 150 149 158 163 167 183 193 183 181 179 182 184 185
209 237 313 296 313 320 338 327 315 332 345 8 62 38 140 157 162 195 191 176 158 156 175 172 187 192 181 188 184 185 187 183
248 254 275 283 298 303 315 292 336 313 319 330 342 139 135 245 234 195 185 185 183 176 171 176 199 180 186 186 176 183 172 183
280 283 267 271 298 284 279 264 288 277 290 292 295 293 242 201 201 212 218 194 186 185 179 185 191 189 189 193 189 190 187 185
304 278 268 278 275 282 272 271 277 284 268 271 261 266 275 260 252 172 209 215 208 186 192 193 193 187 185 198 197 195 188 190
273 265 244 252 264 255 274 328 297 275 265 253 249 238 225 257 239 202 184 189 193 207 198 188 198 194 195 198 195 188 192 194
228 219 223 230 262 246 273 303 288 283 283 278 262 253 216 221 229 197 220 202 184 189 197 195 196 192 192 207 199 200 199 182
283 238 252 178 252 306 355 348 314 334 339 314 290 254 249 227 219 237 168 202 205 189 185 195 202 192 204 207 204 205 214 181
301 284 268 186 313 332 317 333 311 320 328 323 314 310 304 253 237 219 228 201 204 208 195 194 201 188 202 202 218 195 203 194
283 307 309 294 272 260 274 271 286 303 312 315 315 310 278 296 241 251 227 214 197 194 207 201 200 194 194 192 210 218 211 205
275 323 343 295 301 305 271 266 285 291 303 303 301 301 315 318 293 241 268 256 212 185 209 200 200 196 206 209 203 198 226 215
277 310 322 307 296 298 266 255 255 292 302 295 307 317 318 318 314 297 248 243 246 217 207 189 194 219 193 198 237 203 209 203
262 304 259 298 281 249 301 297 294 284 289 295 282 300 303 310 306 301 279 227 236 239 227 205 202 148 71 59 89 134 201 194
344 20 304 64 292 259 231 263 297 295 269 271 280 295 311 309 303 293 280 284 237 234 226 220 206 202 198 209 203 208 192 180